Weather History for Phnom Penh, Cambodia

Change the Weather History Date:

Saturday, September 28, 2013

  Actual Average Record
Temperature  
Mean Temperature 81 °F -  
Max Temperature 84 °F 84 °F 91 °F (2002)
Min Temperature 78 °F 76 °F 77 °F (2000)
Cooling Degree Days 16    
Growing Degree Days 31 (Base 50)    
Moisture  
Dew Point 75 °F    
Average Humidity 81    
Maximum Humidity 94    
Minimum Humidity 70    
Precipitation  
Precipitation 0.00 in - - ()
Sea Level Pressure  
Sea Level Pressure 29.73 in    
Wind  
Wind Speed 5 mph ()    
Max Wind Speed 10 mph    
Max Gust Speed -    
Visibility 5.9 miles    
Events Rain    
Averages and records for this station are not official NWS values.
T = Trace of Precipitation, MM = Missing Value Source: Averaged Metar Reports

Daily Weather History Graph

Daily Weather History Graph

Search for Another Location

Airport:

Trip Planner

Search our weather history database for the weather conditions in past years. The results will help you decide how hot, cold, wet, or windy it might be!

Date:

Astronomy

Sep. 28, 2013 Rise Set
Actual Time 5:49 AM ICT 5:52 PM ICT
Civil Twilight 5:28 AM ICT 6:13 PM ICT
Nautical Twilight 5:04 AM ICT 6:38 PM ICT
Astronomical Twilight 4:39 AM ICT 7:02 PM ICT
Moon 12:03 AM ICT (9/28) 12:57 PM ICT (9/28)
Length of Visible Light 12h 45m
Length of Day
12h 03m
Last Quarter, 40% of the Moon is Illuminated
Sep 28
Last Quarter
Oct 5
New
Oct 12
First Quarter
Oct 19
Full
Oct 27
Last Quarter

Hourly Weather History & Observations

Time (ICT) Temp. Heat Index Dew Point Humidity Pressure Visibility Wind Dir Wind Speed Gust Speed Precip Events Conditions
12:00 AM 78.8 °F - 75.2 °F 89% 29.77 in 6.2 mi SSW 3.5 mph - N/A   Mostly Cloudy
12:30 AM 78.8 °F - 77.0 °F 94% 29.77 in 6.2 mi WNW 2.3 mph - N/A   Mostly Cloudy
6:00 AM 80.6 °F 87.1 °F 77.0 °F 89% 29.74 in 6.2 mi West 2.3 mph - N/A   Mostly Cloudy
6:30 AM 78.8 °F - 75.2 °F 89% 29.74 in 6.2 mi NW 1.2 mph - N/A   Mostly Cloudy
7:00 AM 80.6 °F 86.2 °F 75.2 °F 84% 29.77 in 6.2 mi NNW 3.5 mph - N/A   Mostly Cloudy
7:30 AM 80.6 °F 87.1 °F 77.0 °F 89% 29.77 in 6.2 mi NNW 5.8 mph - N/A   Mostly Cloudy
8:00 AM 82.4 °F 89.5 °F 75.2 °F 79% 29.80 in 6.2 mi NNW 6.9 mph - N/A   Mostly Cloudy
8:30 AM 84.2 °F 92.3 °F 75.2 °F 74% 29.80 in 6.2 mi NNW 9.2 mph - N/A   Mostly Cloudy
9:00 AM 84.2 °F 92.3 °F 75.2 °F 74% 29.80 in 6.2 mi NNW 6.9 mph - N/A   Mostly Cloudy
9:30 AM 84.2 °F 92.3 °F 75.2 °F 74% 29.80 in 6.2 mi North 8.1 mph - N/A   Mostly Cloudy
10:00 AM 84.2 °F 94.1 °F 77.0 °F 79% 29.80 in 6.2 mi NNW 10.4 mph - N/A   Scattered Clouds
10:30 AM 84.2 °F 92.3 °F 75.2 °F 74% 29.80 in 6.2 mi North 6.9 mph - N/A   Scattered Clouds
11:00 AM 84.2 °F 94.1 °F 77.0 °F 79% 29.77 in 5.6 mi North 6.9 mph - N/A Rain Light Rain
11:30 AM 82.4 °F 90.9 °F 77.0 °F 84% 29.77 in 5.6 mi NNE 9.2 mph - N/A Rain Light Rain
12:00 PM 82.4 °F 90.9 °F 77.0 °F 84% 29.74 in 5.6 mi North 3.5 mph - N/A Rain Light Rain
12:30 PM 82.4 °F 89.5 °F 75.2 °F 79% 29.74 in 5.0 mi North 5.8 mph - N/A Rain Light Rain
1:00 PM 82.4 °F 89.5 °F 75.2 °F 79% 29.71 in 5.6 mi North 6.9 mph - N/A Rain Light Rain
1:30 PM 82.4 °F 89.5 °F 75.2 °F 79% 29.71 in 6.2 mi NNE 6.9 mph - N/A Rain Light Rain
2:00 PM 82.4 °F 89.5 °F 75.2 °F 79% 29.68 in 6.2 mi North 6.9 mph - N/A   Mostly Cloudy
2:30 PM 82.4 °F 88.2 °F 73.4 °F 74% 29.68 in 6.2 mi NE 6.9 mph - N/A   Scattered Clouds
3:00 PM 84.2 °F 90.9 °F 73.4 °F 70% 29.68 in 6.2 mi NE 5.8 mph - N/A   Scattered Clouds
3:30 PM 84.2 °F 90.9 °F 73.4 °F 70% 29.68 in 6.2 mi North 3.5 mph - N/A   Scattered Clouds
4:00 PM 84.2 °F 90.9 °F 73.4 °F 70% 29.68 in 6.2 mi NNE 4.6 mph - N/A   Mostly Cloudy
4:30 PM 84.2 °F 90.9 °F 73.4 °F 70% 29.65 in 6.2 mi NNE 5.8 mph - N/A   Mostly Cloudy
5:00 PM 82.4 °F 88.2 °F 73.4 °F 74% 29.65 in 6.2 mi NE 6.9 mph - N/A   Mostly Cloudy
5:30 PM 82.4 °F 88.2 °F 73.4 °F 74% 29.68 in 6.2 mi NE 5.8 mph - N/A   Mostly Cloudy
6:00 PM 80.6 °F 85.4 °F 73.4 °F 79% 29.68 in 6.2 mi ENE 3.5 mph - N/A   Mostly Cloudy
6:30 PM 80.6 °F 85.4 °F 73.4 °F 79% 29.68 in 5.6 mi ENE 3.5 mph - N/A   Mostly Cloudy
7:00 PM 80.6 °F 85.4 °F 73.4 °F 79% 29.71 in 5.6 mi SSE 2.3 mph - N/A   Mostly Cloudy
7:30 PM 80.6 °F 87.1 °F 77.0 °F 89% 29.71 in 5.6 mi SSW 4.6 mph - N/A   Mostly Cloudy
8:00 PM 80.6 °F 86.2 °F 75.2 °F 84% 29.74 in 5.6 mi SW 2.3 mph - N/A   Mostly Cloudy
8:30 PM 80.6 °F 86.2 °F 75.2 °F 84% 29.74 in 5.6 mi SSW 2.3 mph - N/A   Mostly Cloudy
9:00 PM 80.6 °F 86.2 °F 75.2 °F 84% 29.74 in 5.6 mi South 3.5 mph - N/A   Mostly Cloudy
9:30 PM 80.6 °F 87.1 °F 77.0 °F 89% 29.74 in 5.6 mi SW 3.5 mph - N/A   Mostly Cloudy
10:00 PM 80.6 °F 87.1 °F 77.0 °F 89% 29.74 in 5.6 mi SW 5.8 mph - N/A   Mostly Cloudy
10:30 PM 80.6 °F 87.1 °F 77.0 °F 89% 29.74 in 5.6 mi SSW 4.6 mph - N/A   Mostly Cloudy
11:00 PM 80.6 °F 87.1 °F 77.0 °F 89% 29.74 in 5.6 mi South 3.5 mph - N/A   Mostly Cloudy
11:30 PM 80.6 °F 87.1 °F 77.0 °F 89% 29.71 in 5.6 mi South 6.9 mph - N/A   Mostly Cloudy